sat.trackr.live / text

‹ back to catalog

ONEWEB-0703

NORAD 56724 · 2023-068Q

PAYLOAD ACTIVE UNKNOWN

§ Identity

Operator
Country
UK
Launch date
2023-05-20
Launch site
AFWTR
Launch vehicle
Mass (kg)
RCS (m²)

Purposes: comms

External: N2YO · Heavens-Above · Gunter

§ Orbital elements

Epoch: 2026-09-19T17:18:51.990048Z

Period
109.46 min
Inclination
87.8994°
Eccentricity
0.0002708
Mean motion
13.15548179 rev/d
Perigee alt
1,199.7 km
Apogee alt
1,203.8 km
Semi-major
7,579.9 km
B*
1.3075e-4
RAAN
240.3539°
Arg perigee
70.4200°
Mean anomaly
289.7223°
Rev number
16,168

§ Raw data

ONEWEB-07031 56724U 23068Q   26262.72143507  .00000062  00000+0  13075-3 0  99962 56724  87.8994 240.3539 0002708  70.4200 289.7223 13.15548179161686

JSON: /api/v1/satellites/56724 · /tle

For live sub-satellite position, see the globe view (requires WebGL).

§ Visibility from observer

Set your observer location to see the next 7 days of passes ≥ 10°. The values pass through the URL so the page stays shareable.

No JS? Fill the form by hand. The geolocation button needs JavaScript.